User: anonymous   Login
Location: Hale Hill Observatory
(39.3806°N, 86.8431°W)
Time: 08:16:05
(UTC-05:00)
Language:

Cosmos 990 Rocket - Orbit

View from above orbital plane
View from above orbital plane
View from above satellite
View from above satellite

Ground track
Ground track

The orbit data is extracted from the following two-line orbital elements,

1 10677U 78019B   17020.54693356  .00000122  00000-0  46970-4 0  9992
2 10677  74.0360 214.1869 0015891 321.5656  38.4366 14.40002282 41240
Epoch (UTC): 20 January 2017 13:07:35
Eccentricity: 0.0015891
inclination: 74.0360°
perigee height: 747 km
apogee height: 770 km
right ascension of ascending node: 214.1869°
argument of perigee: 321.5656°
revolutions per day: 14.40002282
mean anomaly at epoch: 38.4366°
orbit number at epoch: 4124

The dashed part of the orbit path shows where the satellite is in the earth's shadow,  

DLR